Time,TemperatureF,DewpointF,PressureIn,WindDirection,WindDirectionDegrees,WindSpeedMPH,WindSpeedGustMPH,Humidity,HourlyPrecipIn,Conditions,Clouds,dailyrainin,SoftwareType,DateUTC
2013-09-16 00:03:00,47.4,45.5,30.26,NNE,19,3.0,4.0,93,0.00,,,0.00,Wunderground v.1.15,2013-09-16 05:03:00,
2013-09-16 00:08:00,47.2,45.6,30.26,NNE,19,3.0,3.0,94,0.00,,,0.00,Wunderground v.1.15,2013-09-16 05:08:00,
2013-09-16 00:13:00,47.3,45.9,30.26,NNE,13,3.0,4.0,95,0.00,,,0.00,Wunderground v.1.15,2013-09-16 05:13:00,
2013-09-16 00:19:00,47.4,46.0,30.26,NNE,19,3.0,4.0,95,0.00,,,0.00,Wunderground v.1.15,2013-09-16 05:19:00,
2013-09-16 00:25:00,47.3,45.9,30.26,NNE,20,4.0,4.0,95,0.00,,,0.00,Wunderground v.1.15,2013-09-16 05:25:00,
2013-09-16 00:31:00,47.3,45.9,30.26,NNE,13,3.0,4.0,95,0.00,,,0.00,Wunderground v.1.15,2013-09-16 05:31:00,
2013-09-16 00:36:00,47.2,45.8,30.26,NNE,23,4.0,4.0,95,0.00,,,0.00,Wunderground v.1.15,2013-09-16 05:36:00,
2013-09-16 00:41:00,47.3,46.2,30.26,North,10,5.0,7.0,96,0.00,,,0.00,Wunderground v.1.15,2013-09-16 05:41:00,
2013-09-16 00:47:00,47.2,45.8,30.26,NNE,14,4.0,5.0,95,0.00,,,0.00,Wunderground v.1.15,2013-09-16 05:47:00,
2013-09-16 00:52:00,46.9,45.5,30.26,NNE,15,3.0,5.0,95,0.00,,,0.00,Wunderground v.1.15,2013-09-16 05:52:00,
2013-09-16 00:58:00,46.7,45.3,30.27,NNE,27,2.0,4.0,95,0.00,,,0.00,Wunderground v.1.15,2013-09-16 05:58:00,
2013-09-16 01:04:00,47.0,45.9,30.27,NNE,25,3.0,4.0,96,0.00,,,0.00,Wunderground v.1.15,2013-09-16 06:04:00,
2013-09-16 01:10:00,47.3,46.2,30.27,NNE,24,3.0,4.0,96,0.00,,,0.00,Wunderground v.1.15,2013-09-16 06:10:00,
2013-09-16 01:15:00,47.5,46.4,30.27,NNE,28,4.0,4.0,96,0.00,,,0.00,Wunderground v.1.15,2013-09-16 06:15:00,
2013-09-16 01:21:00,47.9,46.8,30.27,NE,34,4.0,4.0,96,0.00,,,0.00,Wunderground v.1.15,2013-09-16 06:21:00,
2013-09-16 01:26:00,48.3,47.2,30.27,NNE,30,3.0,3.0,96,0.00,,,0.00,Wunderground v.1.15,2013-09-16 06:26:00,
2013-09-16 01:32:00,48.4,47.3,30.27,NE,44,2.0,3.0,96,0.00,,,0.00,Wunderground v.1.15,2013-09-16 06:32:00,
2013-09-16 01:37:00,48.4,47.3,30.28,NE,46,3.0,3.0,96,0.00,,,0.00,Wunderground v.1.15,2013-09-16 06:37:00,
2013-09-16 01:43:00,48.3,47.2,30.28,NE,46,3.0,4.0,96,0.00,,,0.00,Wunderground v.1.15,2013-09-16 06:43:00,
2013-09-16 01:49:00,48.2,47.1,30.28,NE,46,3.0,4.0,96,0.00,,,0.00,Wunderground v.1.15,2013-09-16 06:49:00,
2013-09-16 01:54:00,47.9,46.8,30.27,NE,47,4.0,4.0,96,0.00,,,0.00,Wunderground v.1.15,2013-09-16 06:54:00,
2013-09-16 02:00:00,47.7,46.3,30.27,NE,44,4.0,4.0,95,0.00,,,0.00,Wunderground v.1.15,2013-09-16 07:00:00,
2013-09-16 02:05:00,47.5,46.1,30.27,NE,45,4.0,5.0,95,0.00,,,0.00,Wunderground v.1.15,2013-09-16 07:05:00,
2013-09-16 02:10:00,47.4,46.0,30.28,NE,49,3.0,4.0,95,0.00,,,0.00,Wunderground v.1.15,2013-09-16 07:10:00,
2013-09-16 02:15:00,47.2,45.8,30.28,NE,44,3.0,4.0,95,0.00,,,0.00,Wunderground v.1.15,2013-09-16 07:15:00,
2013-09-16 02:20:00,47.0,45.6,30.28,NE,44,3.0,4.0,95,0.00,,,0.00,Wunderground v.1.15,2013-09-16 07:20:00,
2013-09-16 02:25:00,47.0,45.6,30.28,NE,41,3.0,4.0,95,0.00,,,0.00,Wunderground v.1.15,2013-09-16 07:25:00,
2013-09-16 02:30:00,47.0,45.6,30.28,NE,53,3.0,4.0,95,0.00,,,0.00,Wunderground v.1.15,2013-09-16 07:30:00,
2013-09-16 02:35:00,47.0,45.9,30.28,NE,44,4.0,5.0,96,0.00,,,0.00,Wunderground v.1.15,2013-09-16 07:35:00,
2013-09-16 02:40:00,47.1,46.0,30.28,NE,40,3.0,5.0,96,0.00,,,0.00,Wunderground v.1.15,2013-09-16 07:40:00,
2013-09-16 02:45:00,47.3,46.2,30.28,NE,53,4.0,5.0,96,0.00,,,0.00,Wunderground v.1.15,2013-09-16 07:45:00,
2013-09-16 02:51:00,47.3,46.2,30.29,NE,49,5.0,5.0,96,0.00,,,0.00,Wunderground v.1.15,2013-09-16 07:51:00,
2013-09-16 02:56:00,47.2,46.1,30.29,NE,51,4.0,4.0,96,0.00,,,0.00,Wunderground v.1.15,2013-09-16 07:56:00,
2013-09-16 03:01:00,47.1,46.0,30.29,NE,46,3.0,5.0,96,0.00,,,0.00,Wunderground v.1.15,2013-09-16 08:01:00,
2013-09-16 03:06:00,47.0,45.9,30.29,NE,40,3.0,4.0,96,0.00,,,0.00,Wunderground v.1.15,2013-09-16 08:06:00,
2013-09-16 03:12:00,47.0,45.9,30.29,ENE,63,4.0,5.0,96,0.00,,,0.00,Wunderground v.1.15,2013-09-16 08:12:00,
2013-09-16 03:17:00,47.1,46.0,30.29,NE,46,3.0,4.0,96,0.00,,,0.00,Wunderground v.1.15,2013-09-16 08:17:00,
2013-09-16 03:22:00,46.9,45.8,30.29,NE,43,4.0,5.0,96,0.00,,,0.00,Wunderground v.1.15,2013-09-16 08:22:00,
2013-09-16 03:27:00,46.9,45.8,30.29,NE,45,4.0,5.0,96,0.00,,,0.00,Wunderground v.1.15,2013-09-16 08:27:00,
2013-09-16 03:32:00,46.9,45.8,30.29,NE,51,5.0,7.0,96,0.00,,,0.00,Wunderground v.1.15,2013-09-16 08:32:00,
2013-09-16 03:37:00,47.0,45.9,30.29,NE,50,4.0,6.0,96,0.00,,,0.00,Wunderground v.1.15,2013-09-16 08:37:00,
2013-09-16 03:42:00,47.2,46.1,30.29,NE,55,5.0,6.0,96,0.00,,,0.00,Wunderground v.1.15,2013-09-16 08:42:00,
2013-09-16 03:47:00,47.3,46.2,30.30,NE,54,4.0,6.0,96,0.00,,,0.00,Wunderground v.1.15,2013-09-16 08:47:00,
2013-09-16 03:52:00,47.3,46.2,30.30,NE,44,4.0,6.0,96,0.00,,,0.00,Wunderground v.1.15,2013-09-16 08:52:00,
2013-09-16 03:57:00,47.2,46.1,30.30,NE,40,3.0,4.0,96,0.00,,,0.00,Wunderground v.1.15,2013-09-16 08:57:00,
2013-09-16 04:02:00,47.0,45.9,30.30,ENE,61,4.0,5.0,96,0.00,,,0.00,Wunderground v.1.15,2013-09-16 09:02:00,
2013-09-16 04:07:00,46.9,45.8,30.30,NE,52,4.0,4.0,96,0.00,,,0.00,Wunderground v.1.15,2013-09-16 09:07:00,
2013-09-16 04:12:00,46.8,45.7,30.30,NE,48,2.0,4.0,96,0.00,,,0.00,Wunderground v.1.15,2013-09-16 09:12:00,
2013-09-16 04:17:00,46.7,45.6,30.30,NE,55,3.0,4.0,96,0.00,,,0.00,Wunderground v.1.15,2013-09-16 09:17:00,
2013-09-16 04:22:00,46.5,45.4,30.30,NE,49,3.0,4.0,96,0.00,,,0.00,Wunderground v.1.15,2013-09-16 09:22:00,
2013-09-16 04:28:00,46.5,45.1,30.30,ENE,61,3.0,3.0,95,0.00,,,0.00,Wunderground v.1.15,2013-09-16 09:28:00,
2013-09-16 04:33:00,46.5,45.4,30.30,East,80,5.0,5.0,96,0.00,,,0.00,Wunderground v.1.15,2013-09-16 09:33:00,
2013-09-16 04:38:00,46.8,45.7,30.30,ENE,73,4.0,5.0,96,0.00,,,0.00,Wunderground v.1.15,2013-09-16 09:38:00,
2013-09-16 04:43:00,46.9,45.8,30.30,NE,50,3.0,5.0,96,0.00,,,0.00,Wunderground v.1.15,2013-09-16 09:43:00,
2013-09-16 04:48:00,46.5,45.4,30.30,NE,38,3.0,4.0,96,0.00,,,0.00,Wunderground v.1.15,2013-09-16 09:48:00,
2013-09-16 04:53:00,46.0,44.6,30.30,NE,47,3.0,5.0,95,0.00,,,0.00,Wunderground v.1.15,2013-09-16 09:53:00,
2013-09-16 04:58:00,45.7,44.4,30.30,NE,51,4.0,5.0,95,0.00,,,0.00,Wunderground v.1.15,2013-09-16 09:58:00,
2013-09-16 05:03:00,45.5,44.2,30.30,ENE,65,3.0,5.0,95,0.00,,,0.00,Wunderground v.1.15,2013-09-16 10:03:00,
2013-09-16 05:08:00,45.6,44.5,30.30,NE,52,4.0,6.0,96,0.00,,,0.00,Wunderground v.1.15,2013-09-16 10:08:00,
2013-09-16 05:13:00,45.8,44.7,30.30,NE,53,4.0,6.0,96,0.00,,,0.00,Wunderground v.1.15,2013-09-16 10:13:00,
2013-09-16 05:19:00,46.0,44.9,30.30,NE,45,5.0,6.0,96,0.00,,,0.00,Wunderground v.1.15,2013-09-16 10:19:00,
2013-09-16 05:24:00,46.0,44.9,30.30,NE,54,3.0,6.0,96,0.00,,,0.00,Wunderground v.1.15,2013-09-16 10:24:00,
2013-09-16 05:29:00,46.0,44.9,30.31,ENE,59,5.0,6.0,96,0.00,,,0.00,Wunderground v.1.15,2013-09-16 10:29:00,
2013-09-16 05:34:00,46.1,45.0,30.31,NE,49,3.0,7.0,96,0.00,,,0.00,Wunderground v.1.15,2013-09-16 10:34:00,
2013-09-16 05:39:00,46.1,45.0,30.31,NE,55,4.0,5.0,96,0.00,,,0.00,Wunderground v.1.15,2013-09-16 10:39:00,
2013-09-16 05:44:00,46.0,44.9,30.31,ENE,59,4.0,5.0,96,0.00,,,0.00,Wunderground v.1.15,2013-09-16 10:44:00,
2013-09-16 05:49:00,45.8,44.7,30.31,NE,48,2.0,5.0,96,0.00,,,0.00,Wunderground v.1.15,2013-09-16 10:49:00,
2013-09-16 05:55:00,45.5,44.4,30.32,NE,51,3.0,5.0,96,0.00,,,0.00,Wunderground v.1.15,2013-09-16 10:55:00,
2013-09-16 06:00:00,45.3,44.2,30.32,NE,54,2.0,3.0,96,0.00,,,0.00,Wunderground v.1.15,2013-09-16 11:00:00,
2013-09-16 06:05:00,45.0,43.9,30.32,NE,45,2.0,3.0,96,0.00,,,0.00,Wunderground v.1.15,2013-09-16 11:05:00,
2013-09-16 06:10:00,44.7,43.6,30.32,NE,46,3.0,3.0,96,0.00,,,0.00,Wunderground v.1.15,2013-09-16 11:10:00,
2013-09-16 06:15:00,44.5,43.4,30.32,NE,49,3.0,3.0,96,0.00,,,0.00,Wunderground v.1.15,2013-09-16 11:15:00,
2013-09-16 06:20:00,44.2,42.9,30.32,NE,44,3.0,4.0,95,0.00,,,0.00,Wunderground v.1.15,2013-09-16 11:20:00,
2013-09-16 06:26:00,44.2,43.1,30.32,NE,53,4.0,4.0,96,0.00,,,0.00,Wunderground v.1.15,2013-09-16 11:26:00,
2013-09-16 06:31:00,44.0,42.7,30.32,NE,35,3.0,5.0,95,0.00,,,0.00,Wunderground v.1.15,2013-09-16 11:31:00,
2013-09-16 06:36:00,44.0,42.9,30.32,NE,36,2.0,3.0,96,0.00,,,0.00,Wunderground v.1.15,2013-09-16 11:36:00,
2013-09-16 06:41:00,44.0,42.9,30.33,NE,36,2.0,3.0,96,0.00,,,0.00,Wunderground v.1.15,2013-09-16 11:41:00,
2013-09-16 06:46:00,43.9,42.8,30.33,NNE,27,3.0,3.0,96,0.00,,,0.00,Wunderground v.1.15,2013-09-16 11:46:00,
2013-09-16 06:51:00,43.8,42.7,30.33,NNE,25,1.0,3.0,96,0.00,,,0.00,Wunderground v.1.15,2013-09-16 11:51:00,
2013-09-16 06:56:00,43.8,42.7,30.33,NNE,24,2.0,3.0,96,0.00,,,0.00,Wunderground v.1.15,2013-09-16 11:56:00,
2013-09-16 07:02:00,43.8,42.7,30.33,NNE,28,2.0,3.0,96,0.00,,,0.00,Wunderground v.1.15,2013-09-16 12:02:00,
2013-09-16 07:07:00,43.7,42.6,30.33,NNE,29,3.0,3.0,96,0.00,,,0.00,Wunderground v.1.15,2013-09-16 12:07:00,
2013-09-16 07:12:00,43.6,42.5,30.33,NE,34,2.0,3.0,96,0.00,,,0.00,Wunderground v.1.15,2013-09-16 12:12:00,
2013-09-16 07:18:00,43.7,42.6,30.33,NE,38,2.0,3.0,96,0.00,,,0.00,Wunderground v.1.15,2013-09-16 12:18:00,
2013-09-16 07:23:00,43.8,42.7,30.33,NNE,31,3.0,4.0,96,0.00,,,0.00,Wunderground v.1.15,2013-09-16 12:23:00,
2013-09-16 07:28:00,43.7,42.6,30.34,NNE,33,1.0,3.0,96,0.00,,,0.00,Wunderground v.1.15,2013-09-16 12:28:00,
2013-09-16 07:33:00,43.6,42.8,30.34,NE,36,2.0,3.0,97,0.00,,,0.00,Wunderground v.1.15,2013-09-16 12:33:00,
2013-09-16 07:38:00,43.6,42.8,30.34,NNE,24,2.0,4.0,97,0.00,,,0.00,Wunderground v.1.15,2013-09-16 12:38:00,
2013-09-16 07:43:00,43.9,43.1,30.34,NNE,28,2.0,4.0,97,0.00,,,0.00,Wunderground v.1.15,2013-09-16 12:43:00,
2013-09-16 07:49:00,44.4,43.6,30.34,NE,51,3.0,4.0,97,0.00,,,0.00,Wunderground v.1.15,2013-09-16 12:49:00,
2013-09-16 07:54:00,44.9,44.1,30.34,NE,55,3.0,4.0,97,0.00,,,0.00,Wunderground v.1.15,2013-09-16 12:54:00,
2013-09-16 07:59:00,45.3,44.5,30.34,NE,49,2.0,4.0,97,0.00,,,0.00,Wunderground v.1.15,2013-09-16 12:59:00,
2013-09-16 08:04:00,45.9,45.1,30.34,NE,46,4.0,4.0,97,0.00,,,0.00,Wunderground v.1.15,2013-09-16 13:04:00,
2013-09-16 08:09:00,46.4,45.6,30.34,NE,52,2.0,4.0,97,0.00,,,0.00,Wunderground v.1.15,2013-09-16 13:09:00,
2013-09-16 08:14:00,46.9,46.1,30.34,ENE,61,4.0,6.0,97,0.00,,,0.00,Wunderground v.1.15,2013-09-16 13:14:00,
2013-09-16 08:19:00,47.3,46.5,30.34,ENE,65,5.0,5.0,97,0.00,,,0.00,Wunderground v.1.15,2013-09-16 13:19:00,
2013-09-16 08:24:00,47.9,47.1,30.34,ENE,60,2.0,7.0,97,0.00,,,0.00,Wunderground v.1.15,2013-09-16 13:24:00,
2013-09-16 08:30:00,48.3,47.5,30.34,ENE,59,4.0,5.0,97,0.00,,,0.00,Wunderground v.1.15,2013-09-16 13:30:00,
2013-09-16 08:35:00,48.9,48.1,30.34,ENE,76,4.0,6.0,97,0.00,,,0.00,Wunderground v.1.15,2013-09-16 13:35:00,
2013-09-16 08:40:00,49.5,48.7,30.34,ENE,59,4.0,8.0,97,0.00,,,0.00,Wunderground v.1.15,2013-09-16 13:40:00,
2013-09-16 08:45:00,49.9,48.8,30.34,ENE,78,2.0,8.0,96,0.00,,,0.00,Wunderground v.1.15,2013-09-16 13:45:00,
2013-09-16 08:50:00,50.1,48.7,30.34,NE,49,5.0,7.0,95,0.00,,,0.00,Wunderground v.1.15,2013-09-16 13:50:00,
2013-09-16 08:55:00,50.3,48.6,30.35,ENE,62,8.0,8.0,94,0.00,,,0.00,Wunderground v.1.15,2013-09-16 13:55:00,
2013-09-16 09:01:00,50.6,48.9,30.35,East,87,1.0,8.0,94,0.00,,,0.00,Wunderground v.1.15,2013-09-16 14:01:00,
2013-09-16 09:06:00,51.1,49.4,30.35,NE,52,4.0,5.0,94,0.00,,,0.00,Wunderground v.1.15,2013-09-16 14:06:00,
2013-09-16 09:11:00,51.6,49.9,30.35,NE,42,4.0,9.0,94,0.00,,,0.00,Wunderground v.1.15,2013-09-16 14:11:00,
2013-09-16 09:16:00,52.2,50.2,30.35,ENE,63,4.0,6.0,93,0.00,,,0.00,Wunderground v.1.15,2013-09-16 14:16:00,
2013-09-16 09:21:00,52.8,50.8,30.35,ENE,57,5.0,7.0,93,0.00,,,0.00,Wunderground v.1.15,2013-09-16 14:21:00,
2013-09-16 09:26:00,52.9,50.6,30.35,ENE,76,5.0,5.0,92,0.00,,,0.00,Wunderground v.1.15,2013-09-16 14:26:00,
2013-09-16 09:31:00,53.6,51.3,30.35,East,80,7.0,7.0,92,0.00,,,0.00,Wunderground v.1.15,2013-09-16 14:31:00,
2013-09-16 09:36:00,53.9,51.3,30.35,NE,53,5.0,6.0,91,0.00,,,0.00,Wunderground v.1.15,2013-09-16 14:36:00,
2013-09-16 09:41:00,54.5,51.3,30.35,ENE,75,7.0,9.0,89,0.00,,,0.00,Wunderground v.1.15,2013-09-16 14:41:00,
2013-09-16 09:46:00,54.7,51.2,30.35,East,79,3.0,5.0,88,0.00,,,0.00,Wunderground v.1.15,2013-09-16 14:46:00,
2013-09-16 09:51:00,55.1,51.6,30.35,ENE,76,1.0,8.0,88,0.00,,,0.00,Wunderground v.1.15,2013-09-16 14:51:00,
2013-09-16 09:56:00,55.7,52.2,30.35,SE,138,3.0,3.0,88,0.00,,,0.00,Wunderground v.1.15,2013-09-16 14:56:00,
2013-09-16 10:01:00,56.1,52.3,30.35,ENE,71,5.0,7.0,87,0.00,,,0.00,Wunderground v.1.15,2013-09-16 15:01:00,
2013-09-16 10:06:00,56.7,51.9,30.35,ENE,78,5.0,7.0,84,0.00,,,0.00,Wunderground v.1.15,2013-09-16 15:06:00,
2013-09-16 10:12:00,57.0,52.5,30.36,East,93,6.0,7.0,85,0.00,,,0.00,Wunderground v.1.15,2013-09-16 15:12:00,
2013-09-16 10:17:00,57.3,52.5,30.36,East,100,6.0,8.0,84,0.00,,,0.00,Wunderground v.1.15,2013-09-16 15:17:00,
2013-09-16 10:22:00,58.0,52.9,30.35,ESE,102,7.0,8.0,83,0.00,,,0.00,Wunderground v.1.15,2013-09-16 15:22:00,
2013-09-16 10:28:00,58.2,52.7,30.35,ENE,67,4.0,6.0,82,0.00,,,0.00,Wunderground v.1.15,2013-09-16 15:28:00,
2013-09-16 10:33:00,58.4,52.9,30.35,SSE,148,4.0,7.0,82,0.00,,,0.00,Wunderground v.1.15,2013-09-16 15:33:00,
2013-09-16 10:38:00,58.9,53.4,30.35,ESE,119,2.0,7.0,82,0.00,,,0.00,Wunderground v.1.15,2013-09-16 15:38:00,
2013-09-16 10:43:00,59.5,53.3,30.35,ENE,69,2.0,8.0,80,0.00,,,0.00,Wunderground v.1.15,2013-09-16 15:43:00,
2013-09-16 10:48:00,59.6,53.1,30.35,East,91,4.0,8.0,79,0.00,,,0.00,Wunderground v.1.15,2013-09-16 15:48:00,
2013-09-16 10:53:00,59.9,53.7,30.35,East,100,4.0,8.0,80,0.00,,,0.00,Wunderground v.1.15,2013-09-16 15:53:00,
2013-09-16 10:58:00,60.2,53.0,30.35,South,181,3.0,8.0,77,0.00,,,0.00,Wunderground v.1.15,2013-09-16 15:58:00,
2013-09-16 11:03:00,60.8,53.2,30.35,SE,136,0.0,9.0,76,0.00,,,0.00,Wunderground v.1.15,2013-09-16 16:03:00,
2013-09-16 11:08:00,60.6,53.3,30.34,ESE,123,5.0,8.0,77,0.00,,,0.00,Wunderground v.1.15,2013-09-16 16:08:00,
2013-09-16 11:13:00,61.8,53.4,30.34,SE,145,6.0,10.0,74,0.00,,,0.00,Wunderground v.1.15,2013-09-16 16:13:00,
2013-09-16 11:18:00,62.1,53.3,30.34,East,86,0.0,5.0,73,0.00,,,0.00,Wunderground v.1.15,2013-09-16 16:18:00,
2013-09-16 11:23:00,62.6,53.8,30.34,SSE,159,1.0,11.0,73,0.00,,,0.00,Wunderground v.1.15,2013-09-16 16:23:00,
2013-09-16 11:29:00,63.2,53.3,30.33,SE,142,9.0,9.0,70,0.00,,,0.00,Wunderground v.1.15,2013-09-16 16:29:00,
2013-09-16 11:34:00,62.0,52.9,30.34,SSE,147,9.0,9.0,72,0.00,,,0.00,Wunderground v.1.15,2013-09-16 16:34:00,
2013-09-16 11:39:00,61.1,53.1,30.34,East,98,3.0,8.0,75,0.00,,,0.00,Wunderground v.1.15,2013-09-16 16:39:00,
2013-09-16 11:44:00,61.7,53.0,30.33,SE,131,7.0,8.0,73,0.00,,,0.00,Wunderground v.1.15,2013-09-16 16:44:00,
2013-09-16 11:49:00,61.2,52.5,30.33,ENE,76,5.0,7.0,73,0.00,,,0.00,Wunderground v.1.15,2013-09-16 16:49:00,
2013-09-16 11:54:00,62.2,53.4,30.33,SE,133,4.0,11.0,73,0.00,,,0.00,Wunderground v.1.15,2013-09-16 16:54:00,
2013-09-16 11:59:00,62.2,52.7,30.33,SE,128,2.0,11.0,71,0.00,,,0.00,Wunderground v.1.15,2013-09-16 16:59:00,
2013-09-16 12:04:00,61.5,52.8,30.33,NE,40,5.0,11.0,73,0.00,,,0.00,Wunderground v.1.15,2013-09-16 17:04:00,
2013-09-16 12:10:00,62.3,53.5,30.33,ESE,105,2.0,9.0,73,0.00,,,0.00,Wunderground v.1.15,2013-09-16 17:10:00,
2013-09-16 12:15:00,64.2,53.0,30.33,SE,135,4.0,12.0,67,0.00,,,0.00,Wunderground v.1.15,2013-09-16 17:15:00,
2013-09-16 12:20:00,63.0,51.9,30.33,SE,132,7.0,8.0,67,0.00,,,0.00,Wunderground v.1.15,2013-09-16 17:20:00,
2013-09-16 12:25:00,62.3,51.2,30.33,ENE,64,1.0,8.0,67,0.00,,,0.00,Wunderground v.1.15,2013-09-16 17:25:00,
2013-09-16 12:30:00,64.2,51.3,30.33,SE,128,3.0,7.0,63,0.00,,,0.00,Wunderground v.1.15,2013-09-16 17:30:00,
2013-09-16 12:35:00,63.0,51.5,30.33,ESE,123,8.0,9.0,66,0.00,,,0.00,Wunderground v.1.15,2013-09-16 17:35:00,
2013-09-16 12:40:00,62.2,51.9,30.33,SW,214,3.0,7.0,69,0.00,,,0.00,Wunderground v.1.15,2013-09-16 17:40:00,
2013-09-16 12:45:00,62.0,51.7,30.33,ESE,120,2.0,7.0,69,0.00,,,0.00,Wunderground v.1.15,2013-09-16 17:45:00,
2013-09-16 12:50:00,64.6,53.4,30.33,ENE,63,2.0,10.0,67,0.00,,,0.00,Wunderground v.1.15,2013-09-16 17:50:00,
2013-09-16 12:55:00,65.9,52.1,30.33,East,98,9.0,12.0,61,0.00,,,0.00,Wunderground v.1.15,2013-09-16 17:55:00,
2013-09-16 13:00:00,64.1,51.7,30.32,SE,134,3.0,8.0,64,0.00,,,0.00,Wunderground v.1.15,2013-09-16 18:00:00,
2013-09-16 13:05:00,63.6,52.0,30.32,SE,141,4.0,8.0,66,0.00,,,0.00,Wunderground v.1.15,2013-09-16 18:05:00,
2013-09-16 13:10:00,63.4,51.8,30.32,SW,221,4.0,6.0,66,0.00,,,0.00,Wunderground v.1.15,2013-09-16 18:10:00,
2013-09-16 13:15:00,63.6,51.6,30.31,NNE,33,4.0,8.0,65,0.00,,,0.00,Wunderground v.1.15,2013-09-16 18:15:00,
2013-09-16 13:20:00,64.1,51.7,30.31,SE,135,4.0,7.0,64,0.00,,,0.00,Wunderground v.1.15,2013-09-16 18:20:00,
2013-09-16 13:25:00,66.2,51.4,30.31,ESE,122,3.0,13.0,59,0.00,,,0.00,Wunderground v.1.15,2013-09-16 18:25:00,
2013-09-16 13:30:00,68.3,52.0,30.31,SSE,160,9.0,11.0,56,0.00,,,0.00,Wunderground v.1.15,2013-09-16 18:30:00,
2013-09-16 13:35:00,67.4,51.6,30.31,South,173,7.0,15.0,57,0.00,,,0.00,Wunderground v.1.15,2013-09-16 18:35:00,
2013-09-16 13:41:00,68.7,51.4,30.31,SSE,160,10.0,14.0,54,0.00,,,0.00,Wunderground v.1.15,2013-09-16 18:41:00,
2013-09-16 13:46:00,66.5,50.3,30.31,East,82,3.0,8.0,56,0.00,,,0.00,Wunderground v.1.15,2013-09-16 18:46:00,
2013-09-16 13:51:00,65.4,51.1,30.30,SE,128,9.0,13.0,60,0.00,,,0.00,Wunderground v.1.15,2013-09-16 18:51:00,
2013-09-16 13:56:00,65.1,50.9,30.30,SSE,163,7.0,7.0,60,0.00,,,0.00,Wunderground v.1.15,2013-09-16 18:56:00,
2013-09-16 14:01:00,65.4,51.1,30.30,South,190,6.0,9.0,60,0.00,,,0.00,Wunderground v.1.15,2013-09-16 19:01:00,
2013-09-16 14:06:00,66.9,52.1,30.30,East,95,2.0,9.0,59,0.00,,,0.00,Wunderground v.1.15,2013-09-16 19:06:00,
2013-09-16 14:12:00,68.5,50.7,30.30,ESE,115,8.0,14.0,53,0.00,,,0.00,Wunderground v.1.15,2013-09-16 19:12:00,
2013-09-16 14:17:00,66.6,50.9,30.30,SSE,159,8.0,9.0,57,0.00,,,0.00,Wunderground v.1.15,2013-09-16 19:17:00,
2013-09-16 14:22:00,66.0,50.8,30.30,South,182,4.0,11.0,58,0.00,,,0.00,Wunderground v.1.15,2013-09-16 19:22:00,
2013-09-16 14:27:00,68.3,52.0,30.29,SE,142,9.0,17.0,56,0.00,,,0.00,Wunderground v.1.15,2013-09-16 19:27:00,
2013-09-16 14:32:00,67.6,51.8,30.29,South,175,8.0,17.0,57,0.00,,,0.00,Wunderground v.1.15,2013-09-16 19:32:00,
2013-09-16 14:37:00,66.4,51.2,30.29,South,189,9.0,10.0,58,0.00,,,0.00,Wunderground v.1.15,2013-09-16 19:37:00,
2013-09-16 14:42:00,65.8,51.5,30.28,ESE,108,7.0,11.0,60,0.00,,,0.00,Wunderground v.1.15,2013-09-16 19:42:00,
2013-09-16 14:47:00,66.8,50.6,30.28,South,178,8.0,10.0,56,0.00,,,0.00,Wunderground v.1.15,2013-09-16 19:47:00,
2013-09-16 14:52:00,66.3,51.1,30.28,SE,132,9.0,11.0,58,0.00,,,0.00,Wunderground v.1.15,2013-09-16 19:52:00,
2013-09-16 14:57:00,66.7,51.9,30.28,SE,130,1.0,8.0,59,0.00,,,0.00,Wunderground v.1.15,2013-09-16 19:57:00,
2013-09-16 15:03:00,67.3,51.5,30.28,SE,137,3.0,8.0,57,0.00,,,0.00,Wunderground v.1.15,2013-09-16 20:03:00,
2013-09-16 15:08:00,68.9,50.5,30.27,SE,142,5.0,12.0,52,0.00,,,0.00,Wunderground v.1.15,2013-09-16 20:08:00,
2013-09-16 15:13:00,68.3,50.5,30.27,SE,139,9.0,13.0,53,0.00,,,0.00,Wunderground v.1.15,2013-09-16 20:13:00,
2013-09-16 15:18:00,68.0,50.7,30.27,SSE,147,10.0,13.0,54,0.00,,,0.00,Wunderground v.1.15,2013-09-16 20:18:00,
2013-09-16 15:23:00,68.4,50.6,30.26,NE,55,3.0,13.0,53,0.00,,,0.00,Wunderground v.1.15,2013-09-16 20:23:00,
2013-09-16 15:28:00,67.2,51.0,30.26,ESE,122,7.0,11.0,56,0.00,,,0.00,Wunderground v.1.15,2013-09-16 20:28:00,
2013-09-16 15:33:00,67.3,51.5,30.26,SE,136,5.0,12.0,57,0.00,,,0.00,Wunderground v.1.15,2013-09-16 20:33:00,
2013-09-16 15:38:00,68.3,51.0,30.25,SE,138,9.0,13.0,54,0.00,,,0.00,Wunderground v.1.15,2013-09-16 20:38:00,
2013-09-16 15:43:00,67.0,50.3,30.25,SE,131,12.0,13.0,55,0.00,,,0.00,Wunderground v.1.15,2013-09-16 20:43:00,
2013-09-16 15:48:00,67.7,51.4,30.25,SSE,165,7.0,8.0,56,0.00,,,0.00,Wunderground v.1.15,2013-09-16 20:48:00,
2013-09-16 15:53:00,69.2,51.8,30.25,SE,138,3.0,10.0,54,0.00,,,0.00,Wunderground v.1.15,2013-09-16 20:53:00,
2013-09-16 15:58:00,69.2,51.3,30.24,SSE,162,8.0,12.0,53,0.00,,,0.00,Wunderground v.1.15,2013-09-16 20:58:00,
2013-09-16 16:03:00,68.0,50.7,30.24,SSE,153,7.0,13.0,54,0.00,,,0.00,Wunderground v.1.15,2013-09-16 21:03:00,
2013-09-16 16:09:00,67.2,50.5,30.24,SSE,147,9.0,9.0,55,0.00,,,0.00,Wunderground v.1.15,2013-09-16 21:09:00,
2013-09-16 16:14:00,67.6,51.3,30.24,SSE,159,6.0,10.0,56,0.00,,,0.00,Wunderground v.1.15,2013-09-16 21:14:00,
2013-09-16 16:19:00,68.8,51.5,30.24,SSE,161,12.0,13.0,54,0.00,,,0.00,Wunderground v.1.15,2013-09-16 21:19:00,
2013-09-16 16:24:00,69.6,51.2,30.23,SE,146,8.0,13.0,52,0.00,,,0.00,Wunderground v.1.15,2013-09-16 21:24:00,
2013-09-16 16:29:00,69.4,51.0,30.23,ESE,107,8.0,13.0,52,0.00,,,0.00,Wunderground v.1.15,2013-09-16 21:29:00,
2013-09-16 16:34:00,68.6,50.3,30.23,SE,139,8.0,13.0,52,0.00,,,0.00,Wunderground v.1.15,2013-09-16 21:34:00,
2013-09-16 16:39:00,69.1,51.2,30.22,SSE,162,7.0,24.0,53,0.00,,,0.00,Wunderground v.1.15,2013-09-16 21:39:00,
2013-09-16 16:44:00,68.6,50.8,30.22,SE,138,3.0,24.0,53,0.00,,,0.00,Wunderground v.1.15,2013-09-16 21:44:00,
2013-09-16 16:50:00,68.5,51.2,30.22,ESE,119,10.0,13.0,54,0.00,,,0.00,Wunderground v.1.15,2013-09-16 21:50:00,
2013-09-16 16:55:00,68.1,50.8,30.22,ESE,118,7.0,14.0,54,0.00,,,0.00,Wunderground v.1.15,2013-09-16 21:55:00,
2013-09-16 17:00:00,67.5,50.8,30.22,ESE,108,6.0,11.0,55,0.00,,,0.00,Wunderground v.1.15,2013-09-16 22:00:00,
2013-09-16 17:05:00,68.1,50.8,30.22,ESE,109,6.0,11.0,54,0.00,,,0.00,Wunderground v.1.15,2013-09-16 22:05:00,
2013-09-16 17:10:00,69.1,51.2,30.21,SE,138,10.0,12.0,53,0.00,,,0.00,Wunderground v.1.15,2013-09-16 22:10:00,
2013-09-16 17:15:00,69.0,50.6,30.21,ESE,109,9.0,12.0,52,0.00,,,0.00,Wunderground v.1.15,2013-09-16 22:15:00,
2013-09-16 17:21:00,68.4,51.1,30.21,SSE,150,8.0,13.0,54,0.00,,,0.00,Wunderground v.1.15,2013-09-16 22:21:00,
2013-09-16 17:26:00,68.6,50.8,30.21,SSE,148,8.0,8.0,53,0.00,,,0.00,Wunderground v.1.15,2013-09-16 22:26:00,
2013-09-16 17:31:00,68.9,51.6,30.21,SE,146,9.0,12.0,54,0.00,,,0.00,Wunderground v.1.15,2013-09-16 22:31:00,
2013-09-16 17:36:00,68.6,51.3,30.21,SE,137,4.0,7.0,54,0.00,,,0.00,Wunderground v.1.15,2013-09-16 22:36:00,
2013-09-16 17:41:00,68.3,51.0,30.21,SSE,159,7.0,13.0,54,0.00,,,0.00,Wunderground v.1.15,2013-09-16 22:41:00,
2013-09-16 17:46:00,68.4,51.1,30.21,East,86,10.0,10.0,54,0.00,,,0.00,Wunderground v.1.15,2013-09-16 22:46:00,
2013-09-16 17:51:00,68.3,51.5,30.21,SE,144,6.0,12.0,55,0.00,,,0.00,Wunderground v.1.15,2013-09-16 22:51:00,
2013-09-16 17:57:00,68.3,51.0,30.20,SE,144,6.0,16.0,54,0.00,,,0.00,Wunderground v.1.15,2013-09-16 22:57:00,
2013-09-16 18:02:00,67.2,50.5,30.20,SE,133,9.0,16.0,55,0.00,,,0.00,Wunderground v.1.15,2013-09-16 23:02:00,
2013-09-16 18:07:00,66.2,50.5,30.21,SSE,150,5.0,11.0,57,0.00,,,0.00,Wunderground v.1.15,2013-09-16 23:07:00,
2013-09-16 18:12:00,66.7,51.0,30.20,SE,139,8.0,12.0,57,0.00,,,0.00,Wunderground v.1.15,2013-09-16 23:12:00,
2013-09-16 18:18:00,66.9,50.7,30.20,SSE,150,4.0,11.0,56,0.00,,,0.00,Wunderground v.1.15,2013-09-16 23:18:00,
2013-09-16 18:23:00,66.9,50.7,30.20,SE,125,4.0,11.0,56,0.00,,,0.00,Wunderground v.1.15,2013-09-16 23:23:00,
2013-09-16 18:28:00,66.6,50.9,30.20,SE,138,3.0,9.0,57,0.00,,,0.00,Wunderground v.1.15,2013-09-16 23:28:00,
2013-09-16 18:33:00,66.2,51.0,30.20,SSE,147,8.0,11.0,58,0.00,,,0.00,Wunderground v.1.15,2013-09-16 23:33:00,
2013-09-16 18:38:00,66.0,51.3,30.20,SE,136,5.0,9.0,59,0.00,,,0.00,Wunderground v.1.15,2013-09-16 23:38:00,
2013-09-16 18:43:00,65.8,51.5,30.20,SE,137,4.0,9.0,60,0.00,,,0.00,Wunderground v.1.15,2013-09-16 23:43:00,
2013-09-16 18:48:00,65.6,50.9,30.20,SE,136,8.0,11.0,59,0.00,,,0.00,Wunderground v.1.15,2013-09-16 23:48:00,
2013-09-16 18:54:00,65.1,50.9,30.19,SE,127,8.0,11.0,60,0.00,,,0.00,Wunderground v.1.15,2013-09-16 23:54:00,
2013-09-16 18:59:00,64.5,50.7,30.19,SE,139,5.0,9.0,61,0.00,,,0.00,Wunderground v.1.15,2013-09-16 23:59:00,
2013-09-16 19:04:00,64.3,51.0,30.19,ESE,121,2.0,11.0,62,0.00,,,0.00,Wunderground v.1.15,2013-09-17 00:04:00,
2013-09-16 19:09:00,64.1,50.8,30.19,SE,138,7.0,11.0,62,0.00,,,0.00,Wunderground v.1.15,2013-09-17 00:09:00,
2013-09-16 19:14:00,63.6,50.8,30.19,SE,131,5.0,11.0,63,0.00,,,0.00,Wunderground v.1.15,2013-09-17 00:14:00,
2013-09-16 19:19:00,63.1,50.7,30.19,SSE,153,5.0,7.0,64,0.00,,,0.00,Wunderground v.1.15,2013-09-17 00:19:00,
2013-09-16 19:24:00,62.7,50.8,30.19,SE,141,3.0,9.0,65,0.00,,,0.00,Wunderground v.1.15,2013-09-17 00:24:00,
2013-09-16 19:29:00,62.1,51.0,30.19,SSE,150,1.0,5.0,67,0.00,,,0.00,Wunderground v.1.15,2013-09-17 00:29:00,
2013-09-16 19:34:00,61.4,50.7,30.19,SE,130,0.0,5.0,68,0.00,,,0.00,Wunderground v.1.15,2013-09-17 00:34:00,
2013-09-16 19:40:00,60.8,50.6,30.19,SE,146,1.0,4.0,69,0.00,,,0.00,Wunderground v.1.15,2013-09-17 00:40:00,
2013-09-16 19:45:00,60.2,50.4,30.19,SSE,151,1.0,4.0,70,0.00,,,0.00,Wunderground v.1.15,2013-09-17 00:45:00,
2013-09-16 19:50:00,59.7,51.0,30.19,SSE,165,5.0,7.0,73,0.00,,,0.00,Wunderground v.1.15,2013-09-17 00:50:00,
2013-09-16 19:55:00,59.4,51.1,30.19,SE,142,3.0,7.0,74,0.00,,,0.00,Wunderground v.1.15,2013-09-17 00:55:00,
2013-09-16 20:01:00,59.5,51.6,30.19,SSE,150,8.0,11.0,75,0.00,,,0.00,Wunderground v.1.15,2013-09-17 01:01:00,
2013-09-16 20:06:00,59.5,51.9,30.20,SSE,148,9.0,9.0,76,0.00,,,0.00,Wunderground v.1.15,2013-09-17 01:06:00,
2013-09-16 20:11:00,59.4,51.8,30.20,SE,135,11.0,14.0,76,0.00,,,0.00,Wunderground v.1.15,2013-09-17 01:11:00,
2013-09-16 20:16:00,59.2,51.6,30.20,SE,138,10.0,10.0,76,0.00,,,0.00,Wunderground v.1.15,2013-09-17 01:16:00,
2013-09-16 20:21:00,59.0,51.8,30.20,South,178,6.0,13.0,77,0.00,,,0.00,Wunderground v.1.15,2013-09-17 01:21:00,
2013-09-16 20:27:00,58.7,51.5,30.20,SE,132,12.0,12.0,77,0.00,,,0.00,Wunderground v.1.15,2013-09-17 01:27:00,
2013-09-16 20:32:00,58.5,51.7,30.20,SE,132,9.0,13.0,78,0.00,,,0.00,Wunderground v.1.15,2013-09-17 01:32:00,
2013-09-16 20:36:00,58.3,51.5,30.20,SE,144,11.0,12.0,78,0.00,,,0.00,Wunderground v.1.15,2013-09-17 01:36:00,
2013-09-16 20:42:00,58.1,51.3,30.20,SE,143,10.0,13.0,78,0.00,,,0.00,Wunderground v.1.15,2013-09-17 01:42:00,
2013-09-16 20:47:00,57.9,51.4,30.20,SSE,147,4.0,12.0,79,0.00,,,0.00,Wunderground v.1.15,2013-09-17 01:47:00,
2013-09-16 20:52:00,57.7,51.2,30.20,SE,136,5.0,13.0,79,0.00,,,0.00,Wunderground v.1.15,2013-09-17 01:52:00,
2013-09-16 20:57:00,57.4,50.9,30.20,SE,146,8.0,15.0,79,0.00,,,0.00,Wunderground v.1.15,2013-09-17 01:57:00,
2013-09-16 21:02:00,57.2,50.7,30.20,SE,134,13.0,15.0,79,0.00,,,0.00,Wunderground v.1.15,2013-09-17 02:02:00,
2013-09-16 21:07:00,56.9,50.8,30.20,SE,127,8.0,11.0,80,0.00,,,0.00,Wunderground v.1.15,2013-09-17 02:07:00,
2013-09-16 21:12:00,56.7,50.6,30.20,SSE,147,8.0,12.0,80,0.00,,,0.00,Wunderground v.1.15,2013-09-17 02:12:00,
2013-09-16 21:18:00,56.3,50.5,30.20,SE,142,5.0,9.0,81,0.00,,,0.00,Wunderground v.1.15,2013-09-17 02:18:00,
2013-09-16 21:23:00,56.0,50.3,30.21,SSE,147,8.0,10.0,81,0.00,,,0.00,Wunderground v.1.15,2013-09-17 02:23:00,
2013-09-16 21:28:00,55.6,50.2,30.21,SE,141,7.0,9.0,82,0.00,,,0.00,Wunderground v.1.15,2013-09-17 02:28:00,
2013-09-16 21:33:00,55.4,50.3,30.21,South,173,5.0,12.0,83,0.00,,,0.00,Wunderground v.1.15,2013-09-17 02:33:00,
2013-09-16 21:38:00,55.1,50.4,30.21,SE,142,9.0,11.0,84,0.00,,,0.00,Wunderground v.1.15,2013-09-17 02:38:00,
2013-09-16 21:43:00,55.0,50.3,30.21,SE,130,7.0,11.0,84,0.00,,,0.00,Wunderground v.1.15,2013-09-17 02:43:00,
2013-09-16 21:48:00,54.9,50.2,30.21,SE,131,7.0,10.0,84,0.00,,,0.00,Wunderground v.1.15,2013-09-17 02:48:00,
2013-09-16 21:53:00,54.5,49.8,30.21,SE,140,9.0,10.0,84,0.00,,,0.00,Wunderground v.1.15,2013-09-17 02:53:00,
2013-09-16 21:58:00,54.1,49.7,30.21,SSE,148,5.0,10.0,85,0.00,,,0.00,Wunderground v.1.15,2013-09-17 02:58:00,
2013-09-16 22:04:00,53.8,49.7,30.21,SSE,166,6.0,10.0,86,0.00,,,0.00,Wunderground v.1.15,2013-09-17 03:04:00,
2013-09-16 22:09:00,53.5,49.7,30.21,SSE,155,7.0,9.0,87,0.00,,,0.00,Wunderground v.1.15,2013-09-17 03:09:00,
2013-09-16 22:14:00,53.2,49.4,30.21,SSE,147,5.0,9.0,87,0.00,,,0.00,Wunderground v.1.15,2013-09-17 03:14:00,
2013-09-16 22:19:00,53.0,49.5,30.21,SSE,152,5.0,9.0,88,0.00,,,0.00,Wunderground v.1.15,2013-09-17 03:19:00,
2013-09-16 22:24:00,52.9,49.4,30.21,ESE,122,5.0,10.0,88,0.00,,,0.00,Wunderground v.1.15,2013-09-17 03:24:00,
2013-09-16 22:29:00,52.9,49.4,30.21,SSE,159,6.0,10.0,88,0.00,,,0.00,Wunderground v.1.15,2013-09-17 03:29:00,
2013-09-16 22:34:00,52.7,49.2,30.21,SE,140,8.0,10.0,88,0.00,,,0.00,Wunderground v.1.15,2013-09-17 03:34:00,
2013-09-16 22:39:00,52.5,49.4,30.21,SE,136,7.0,8.0,89,0.00,,,0.00,Wunderground v.1.15,2013-09-17 03:39:00,
2013-09-16 22:44:00,52.4,49.3,30.21,SSE,147,4.0,8.0,89,0.00,,,0.00,Wunderground v.1.15,2013-09-17 03:44:00,
2013-09-16 22:49:00,52.2,49.1,30.21,SSE,160,6.0,9.0,89,0.00,,,0.00,Wunderground v.1.15,2013-09-17 03:49:00,
2013-09-16 22:55:00,52.1,49.3,30.21,SE,125,5.0,9.0,90,0.00,,,0.00,Wunderground v.1.15,2013-09-17 03:55:00,
2013-09-16 23:00:00,52.0,49.2,30.21,SE,138,8.0,10.0,90,0.00,,,0.00,Wunderground v.1.15,2013-09-17 04:00:00,
2013-09-16 23:01:00,52.1,49.0,30.21,SE,140,7.0,10.0,89,0.00,,,0.00,Wunderground v.1.15,2013-09-17 04:01:00,
2013-09-16 23:06:00,52.0,48.9,30.21,ESE,120,4.0,10.0,89,0.00,,,0.00,Wunderground v.1.15,2013-09-17 04:06:00,
2013-09-16 23:11:00,52.0,48.9,30.21,SE,130,7.0,11.0,89,0.00,,,0.00,Wunderground v.1.15,2013-09-17 04:11:00,
2013-09-16 23:16:00,52.0,48.9,30.21,South,177,6.0,9.0,89,0.00,,,0.00,Wunderground v.1.15,2013-09-17 04:16:00,
2013-09-16 23:21:00,51.9,48.8,30.21,SE,134,8.0,10.0,89,0.00,,,0.00,Wunderground v.1.15,2013-09-17 04:21:00,
2013-09-16 23:27:00,51.8,48.7,30.21,SE,145,6.0,7.0,89,0.00,,,0.00,Wunderground v.1.15,2013-09-17 04:27:00,
2013-09-16 23:32:00,51.8,49.0,30.21,SE,130,5.0,10.0,90,0.00,,,0.00,Wunderground v.1.15,2013-09-17 04:32:00,
2013-09-16 23:37:00,51.7,48.9,30.21,SSE,148,3.0,8.0,90,0.00,,,0.00,Wunderground v.1.15,2013-09-17 04:37:00,
2013-09-16 23:42:00,51.6,48.8,30.21,ESE,122,4.0,8.0,90,0.00,,,0.00,Wunderground v.1.15,2013-09-17 04:42:00,
2013-09-16 23:47:00,51.4,48.6,30.21,SE,135,4.0,5.0,90,0.00,,,0.00,Wunderground v.1.15,2013-09-17 04:47:00,
2013-09-16 23:52:00,51.2,48.4,30.21,SE,146,5.0,8.0,90,0.00,,,0.00,Wunderground v.1.15,2013-09-17 04:52:00,
2013-09-16 23:57:00,50.9,48.1,30.21,SE,141,4.0,5.0,90,0.00,,,0.00,Wunderground v.1.15,2013-09-17 04:57:00,